Flag for Vanuatu Weather past 2 weeks in Port Vila, Vanuatu

Now
61 °F

Scattered clouds.


Feels Like: 61 °F
Forecast: 73 / 76 °F
Wind: No wind

Location: Bauerfield Efate

Current Time: Oct 2, 2014 at 6:42:04 AM

Latest Report: Oct 2, 2014 at 6:00 AM


Visibility: N/A

Pressure: 29.95 "Hg

Humidity: 94%

Dew point: 59 °F

Location of Port VilaLocation

Historic Weather in Port Vila — Graph

°F

Port Vila temperature yesterday

Maximum temperature yesterday: 79 °F (at 11:00 AM)
Minimum temperature yesterday: 63 °F (at 12:00 AM)
Average temperature yesterday: 70 °F

Past Weeks' High & Low Weather Summary

 TemperatureHumidityPressure
High86 °F (Sep 17, 1:00 PM)100% (Sep 18, 4:00 AM)30.09 "Hg (Sep 18, 4:00 AM)
Low61 °F (Oct 2, 5:00 AM)55% (Sep 24, 12:00 PM)29.77 "Hg (Sep 28, 4:00 AM)
Average73 °F83%29.96 "Hg
* Reported Sep 17 5:00 AM — Oct 2 5:00 AM, Port Vila, Weather by CustomWeather, © 2014

Note: Actual official high and low records may vary slightly from our data, if they occured in-between our weather recording intervals... More about our weather records

Advertising

Port Vila weather history for previous 24 hours

 ConditionsComfort  
Time TempWeatherWind HumidityBarometerVisibility
5:00 AM
Oct 2
61 °FPassing clouds.No wind94%29.92 "HgN/A
4:00 AM64 °FPassing clouds.No wind83%29.92 "HgN/A
3:00 AM64 °FPassing clouds.No wind83%29.92 "HgN/A
2:00 AM64 °FPassing clouds.No wind83%29.89 "HgN/A
1:00 AM64 °FPassing clouds.No wind94%29.92 "HgN/A
12:00 AM64 °FPassing clouds.No wind94%29.92 "HgN/A
11:00 PM
Oct 1
64 °FPassing clouds.No wind94%29.95 "HgN/A
10:00 PM64 °FPassing clouds.No wind83%29.95 "HgN/A
9:00 PM66 °FPassing clouds.3 mph83%29.95 "HgN/A
8:00 PM66 °FPassing clouds.No wind88%29.95 "HgN/A
5:00 PM73 °FScattered clouds.13 mph65%29.92 "HgN/A
4:00 PM75 °FBroken clouds.13 mph65%29.89 "HgN/A
3:00 PM75 °FBroken clouds.12 mph65%29.89 "HgN/A
2:00 PM77 °FScattered clouds.16 mph61%29.89 "HgN/A
1:00 PM75 °FBroken clouds.10 mph65%29.92 "HgN/A
12:00 PM75 °FPartly sunny.16 mph65%29.95 "HgN/A
11:00 AM79 °FBroken clouds.14 mph61%29.98 "HgN/A
10:00 AM77 °FBroken clouds.13 mph65%29.98 "HgN/A
9:00 AM75 °FScattered clouds.12 mph69%29.98 "HgN/A
8:00 AM75 °FScattered clouds.10 mph74%29.98 "HgN/A
7:00 AM66 °FPassing clouds.2 mph100%29.98 "HgN/A
6:00 AM63 °FPassing clouds.2 mph100%29.95 "HgN/A
Weather by CustomWeather, © 2014

See weather overviewHow to use our weather pages